Wind_Speed
32 33 34 35 35 36 36 37 37 37 37 39 40 40 40 40 40 40 41 42 43 44 45 45 46 47 49 49 48 47 47 46 44 42 40 37 34 32
35 35 36 37 38 38 39 39 39 39 39 40 41 42 42 42 42 42 42 43 44 45 45 46 46 46 48 49 49 48 47 47 46 44 41 39 36 33
37 38 38 39 39 40 40 40 41 41 41 40 42 43 43 43 44 44 44 44 44 45 46 47 48 47 47 48 50 49 48 47 47 46 44 41 38 35
39 39 39 40 39 40 40 40 41 41 41 41 42 43 44 45 45 45 46 45 45 45 46 48 48 48 48 47 48 49 49 48 48 47 46 44 41 38
40 40 40 39 39 39 39 40 40 41 41 41 41 43 44 45 45 45 46 46 45 45 46 47 47 48 48 48 48 48 49 49 48 48 47 45 42 39
40 39 39 38 37 37 38 38 39 40 40 40 41 41 43 44 45 45 45 46 46 46 46 47 46 47 48 47 48 48 48 48 49 49 48 46 44 41
39 38 37 36 36 36 36 36 37 38 38 39 39 40 41 42 44 45 45 45 45 45 45 45 46 46 47 47 48 48 49 48 49 49 48 47 45 43
38 37 36 35 35 34 34 35 35 36 37 38 38 38 39 40 42 43 44 44 43 44 44 44 45 46 46 46 48 48 48 48 49 49 48 48 46 44
37 36 35 34 34 33 33 34 34 35 35 36 36 36 37 39 40 42 43 44 43 43 43 43 44 45 45 46 47 49 48 48 49 50 49 49 48 45
37 36 35 34 34 33 32 32 32 33 34 34 34 35 36 37 39 41 42 43 44 43 43 42 43 44 45 44 45 47 49 48 50 50 50 50 49 47
37 36 34 33 33 33 32 31 31 32 33 33 33 34 35 36 38 40 42 43 43 43 44 43 43 42 43 44 44 45 47 48 49 50 50 50 50 49
36 35 34 32 32 32 32 32 32 32 33 33 33 34 34 36 37 38 40 43 43 44 45 44 43 43 42 43 43 43 45 46 47 49 50 50 51 51
35 34 33 33 32 33 33 33 33 33 32 33 33 33 34 34 36 38 39 41 44 44 45 46 45 44 43 42 42 42 44 45 45 47 50 52 53 52
34 33 33 33 33 33 33 33 33 32 32 32 32 33 33 34 35 36 39 41 43 44 46 47 47 45 44 43 43 42 43 43 43 44 48 51 52 51
34 33 33 33 33 32 32 32 31 31 31 31 31 32 32 33 34 34 36 40 43 44 45 47 47 47 45 43 42 42 42 42 42 43 44 48 50 51
34 33 33 33 32 32 31 30 30 30 30 31 31 31 31 32 33 33 34 37 40 43 44 46 47 47 45 44 42 41 41 41 42 42 43 46 49 50
33 32 32 32 31 30 29 28 28 28 28 28 28 28 29 30 31 33 34 35 38 42 44 46 47 47 46 44 42 41 40 39 41 42 43 43 46 48
33 32 31 31 30 29 28 27 27 27 27 26 26 27 27 28 29 31 33 34 36 40 43 44 46 48 48 46 44 42 42 40 41 42 43 44 45 47
32 31 30 29 28 27 27 27 26 26 26 26 25 26 27 28 29 30 32 33 35 38 41 44 45 47 48 48 46 44 43 42 41 42 43 44 44 46
31 30 29 28 27 26 26 26 25 25 25 24 24 24 25 26 27 29 30 32 34 37 41 44 45 45 46 47 48 47 45 42 42 42 42 43 44 46
30 28 28 27 26 26 25 25 25 24 24 23 23 23 23 24 25 27 29 31 33 36 39 42 45 46 47 48 48 47 46 44 42 43 43 44 45 47
28 28 27 26 26 25 25 24 23 23 23 23 23 23 23 24 24 25 26 29 31 34 37 40 44 47 48 48 48 47 46 46 44 43 44 44 45 45
28 27 27 26 26 25 25 24 23 23 22 22 22 22 21 22 23 24 25 27 30 32 35 38 43 46 47 48 48 48 47 46 46 44 44 44 45 46
Wind_Direction
296 293 290 288 285 282 279 276 274 271 268 266 263 259 256 253 251 249 245 243 241 239 238 238 237 236 235 235 235 234 233 233 233 234 235 234 236 238
297 294 291 288 285 282 279 276 273 271 268 266 264 260 257 254 251 250 247 244 242 240 238 237 237 237 236 235 234 233 232 232 232 232 231 232 234 237
298 295 292 289 286 282 279 276 273 271 268 265 263 261 258 254 251 249 247 245 243 241 239 237 237 236 235 234 233 232 230 230 231 231 232 231 234 236
299 296 292 289 285 282 279 276 273 271 268 265 263 261 258 255 251 249 247 245 243 240 239 238 237 236 235 234 232 231 231 230 230 230 231 231 233 234
300 297 293 289 285 282 279 276 273 271 268 265 262 260 258 255 251 249 246 244 243 240 239 237 236 234 234 234 232 231 231 230 229 230 230 230 230 232
301 298 294 289 285 282 279 276 273 271 268 265 262 260 257 254 251 248 246 243 241 239 238 236 235 233 233 233 232 231 230 230 229 229 228 228 228 230
302 298 294 290 286 283 280 277 274 272 269 266 263 260 257 253 250 246 245 242 240 239 238 237 235 234 233 232 232 232 230 229 228 227 227 227 227 228
303 299 295 291 288 285 281 278 275 272 269 266 264 260 257 253 249 246 244 241 238 237 236 235 235 234 233 233 231 230 230 229 228 226 226 225 226 227
303 299 296 292 289 286 282 280 277 273 270 267 264 261 257 253 249 245 243 240 236 235 235 234 233 232 233 233 232 230 229 228 227 225 225 225 226 227
302 299 296 293 290 287 285 282 278 274 271 268 264 261 258 255 250 245 242 239 235 234 233 233 232 232 231 232 232 230 229 228 226 225 224 224 225 226
302 299 297 293 291 288 286 283 279 276 273 269 265 262 259 256 251 246 242 239 235 233 232 232 231 229 229 230 230 229 228 229 226 224 223 223 224 224
302 299 297 294 291 289 286 283 280 277 274 270 266 263 261 257 252 247 243 239 235 232 230 230 230 229 228 227 227 228 227 227 225 223 222 222 222 223
301 298 296 295 292 289 287 285 281 278 274 271 268 265 261 257 253 247 244 240 236 233 231 229 229 229 228 226 225 225 225 225 224 222 221 220 220 220
301 299 297 295 293 290 288 285 282 279 275 271 269 267 261 257 253 248 244 239 236 233 232 230 228 229 228 227 225 224 224 224 224 223 222 219 219 219
301 299 298 296 294 292 289 285 283 280 276 273 271 268 262 256 252 249 245 240 236 233 231 229 228 228 227 226 225 224 223 222 222 221 221 219 218 218
301 299 297 296 295 292 289 285 284 281 278 274 271 267 262 256 251 248 245 240 235 231 229 228 227 226 225 224 224 223 221 220 219 219 220 219 218 218
301 299 298 296 295 293 289 285 283 281 279 274 271 267 261 256 251 247 244 241 235 231 229 228 227 225 224 222 222 222 221 220 218 218 218 219 219 217
300 298 298 296 295 293 290 287 284 282 278 274 271 267 261 256 252 247 243 240 235 231 228 227 226 224 221 221 220 219 220 219 217 216 215 215 217 216
299 298 298 297 294 292 290 288 285 283 278 274 272 268 262 256 251 246 242 239 235 231 228 225 224 222 220 220 219 218 217 218 217 215 215 214 215 216
297 297 297 296 293 291 290 288 286 282 278 274 272 269 263 257 252 246 242 238 235 231 227 225 223 222 220 219 219 218 218 217 217 216 215 215 215 214
296 295 296 294 293 291 290 288 284 281 276 273 272 270 265 258 252 247 244 239 234 229 226 224 223 221 219 216 215 216 217 216 216 215 214 215 215 213
294 295 295 294 293 291 289 287 283 279 275 273 271 269 265 260 254 249 245 238 232 228 225 223 221 220 218 216 215 214 215 215 215 216 215 214 214 212
294 294 294 294 293 290 288 285 281 277 274 273 270 266 264 259 254 250 245 237 230 227 226 222 219 217 216 215 213 213 214 214 215 216 215 213 212 210
Height
5790 5788 5786 5784 5783 5782 5781 5781 5781 5781 5782 5782 5783 5785 5788 5790 5793 5796 5800 5803 5807 5812 5816 5821 5826 5831 5837 5843 5848 5854 5860 5865 5871 5876 5881 5885 5889 5893
5781 5778 5776 5774 5772 5771 5769 5769 5769 5769 5771 5771 5771 5773 5776 5779 5782 5785 5788 5792 5797 5801 5805 5810 5815 5821 5826 5832 5838 5844 5850 5856 5862 5867 5872 5877 5881 5885
5771 5768 5765 5762 5760 5759 5758 5757 5756 5757 5758 5759 5759 5761 5763 5766 5770 5773 5777 5781 5785 5790 5794 5799 5804 5810 5815 5821 5827 5833 5840 5846 5852 5858 5864 5869 5874 5878
5760 5756 5753 5751 5749 5747 5745 5744 5744 5744 5745 5747 5747 5748 5750 5753 5757 5761 5764 5769 5773 5778 5782 5787 5793 5798 5804 5810 5817 5823 5829 5836 5842 5848 5855 5860 5866 5870
5748 5744 5741 5739 5737 5734 5733 5732 5731 5731 5732 5733 5735 5736 5738 5740 5744 5748 5752 5757 5761 5766 5771 5776 5781 5787 5793 5799 5806 5812 5819 5825 5832 5838 5845 5851 5857 5862
5736 5733 5729 5727 5724 5722 5721 5720 5719 5719 5719 5720 5722 5723 5725 5727 5731 5735 5739 5744 5749 5754 5759 5764 5770 5775 5782 5788 5795 5802 5808 5815 5821 5828 5835 5841 5847 5853
5725 5721 5718 5715 5713 5711 5709 5708 5707 5707 5707 5708 5709 5711 5713 5715 5718 5722 5727 5732 5737 5742 5748 5754 5759 5765 5770 5777 5784 5790 5797 5804 5811 5818 5825 5832 5838 5844
5715 5711 5707 5704 5702 5700 5698 5697 5696 5696 5696 5696 5697 5699 5701 5703 5706 5710 5715 5720 5727 5731 5736 5742 5747 5753 5759 5766 5772 5779 5786 5793 5800 5807 5814 5822 5829 5835
5704 5700 5697 5694 5691 5689 5687 5686 5685 5684 5684 5685 5686 5687 5689 5692 5695 5699 5703 5708 5714 5719 5724 5731 5736 5742 5748 5754 5761 5768 5775 5782 5789 5796 5804 5811 5819 5825
5694 5690 5686 5683 5681 5679 5677 5676 5675 5674 5673 5674 5675 5676 5677 5679 5683 5687 5691 5696 5703 5707 5713 5719 5725 5731 5737 5743 5749 5756 5764 5771 5778 5786 5793 5801 5808 5815
5683 5680 5676 5673 5671 5668 5667 5666 5664 5663 5662 5663 5664 5665 5666 5668 5671 5675 5679 5684 5691 5697 5701 5708 5714 5719 5725 5732 5738 5745 5752 5760 5767 5774 5782 5790 5797 5805
5674 5669 5666 5664 5661 5658 5656 5655 5654 5653 5652 5652 5653 5654 5655 5657 5659 5663 5667 5672 5678 5684 5690 5696 5702 5708 5715 5722 5728 5735 5742 5749 5756 5764 5771 5779 5787 5794
5663 5660 5656 5654 5651 5648 5646 5644 5643 5642 5641 5641 5642 5643 5644 5646 5648 5651 5655 5660 5666 5673 5678 5684 5691 5697 5704 5711 5718 5725 5732 5739 5746 5753 5760 5768 5776 5784
5654 5650 5646 5643 5641 5638 5636 5634 5632 5631 5630 5630 5631 5632 5633 5635 5637 5640 5644 5648 5654 5661 5666 5673 5680 5686 5694 5701 5708 5715 5722 5729 5736 5743 5750 5758 5766 5774
5644 5640 5637 5633 5630 5628 5625 5623 5621 5620 5620 5620 5620 5621 5621 5623 5626 5629 5632 5636 5642 5649 5655 5662 5669 5676 5683 5691 5698 5705 5712 5719 5726 5734 5741 5748 5756 5764
5634 5630 5627 5623 5620 5618 5615 5613 5611 5610 5609 5609 5609 5610 5610 5612 5615 5618 5621 5625 5631 5637 5643 5650 5657 5665 5673 5680 5688 5695 5702 5710 5717 5725 5732 5739 5746 5754
5624 5621 5617 5614 5611 5608 5606 5604 5602 5601 5599 5599 5599 5599 5600 5602 5604 5607 5610 5614 5620 5626 5632 5639 5646 5654 5662 5670 5678 5685 5693 5700 5708 5715 5723 5730 5737 5745
5614 5611 5607 5604 5602 5599 5597 5595 5593 5591 5590 5589 5589 5589 5590 5592 5594 5596 5600 5604 5609 5614 5621 5628 5635 5643 5651 5660 5668 5676 5684 5691 5698 5706 5713 5721 5729 5737
5604 5601 5598 5595 5592 5590 5588 5586 5584 5583 5581 5580 5580 5580 5581 5582 5584 5586 5590 5594 5598 5604 5610 5617 5624 5632 5641 5650 5659 5667 5675 5682 5689 5697 5704 5712 5721 5728
5595 5592 5589 5586 5584 5582 5579 5577 5576 5574 5573 5572 5571 5571 5572 5573 5574 5577 5580 5584 5588 5593 5599 5606 5614 5623 5632 5640 5648 5656 5664 5673 5680 5688 5695 5703 5710 5718
5586 5583 5580 5578 5576 5573 5571 5569 5567 5566 5565 5564 5563 5563 5563 5564 5566 5568 5570 5574 5578 5583 5589 5596 5604 5612 5619 5628 5637 5646 5655 5663 5671 5679 5686 5694 5702 5710
5577 5574 5572 5569 5567 5565 5563 5561 5559 5558 5557 5556 5556 5555 5555 5556 5557 5559 5561 5564 5568 5574 5579 5586 5592 5600 5609 5618 5628 5637 5645 5653 5661 5669 5677 5686 5694 5703
5569 5566 5563 5561 5559 5557 5555 5553 5551 5550 5549 5548 5548 5548 5548 5548 5549 5551 5552 5555 5560 5564 5570 5576 5583 5591 5599 5608 5618 5627 5635 5643 5652 5660 5669 5677 5685 5693